Date String (YYYY-MM-DD hh:mm:ss) UTC,Instrument flags,absolute air pressure of the measurement (hPa),sample flow rate (lpm),inlet stack bypass flow (lpm),air temperature of the measurement (°C),ambient temperature measured by the external sensor (°C),aerosol sample conditioner tube jacket temperature (°C),OPC LED temperature (°C),internal box temperature (°C),relative humidity of the measurement (%),span deviation,mass concentration of particles derived from Lorenz-Mie calculation of OPC scattering (μg/m³),mass concentration of particles derived from Lorenz-Mie calculation of OPC scattering (μg/m³),mass concentration of particles derived from Lorenz-Mie calculation of OPC scattering (μg/m³)
DateTimeUTC,F1_M11,P_M11,Q1_M11,Q2_M11,T1_M11,T2_M11,T3_M11,T4_M11,T5_M11,U1_M11,ZSPAN_M11,X0_M11,X2_M11,X1_M11
2023-09-14 08:00:00,SystemResetWarning,0830.1,5.01,000.00,028.9,027.4,000.0,037.2,030.4,16.7,0000.0,0011.55,0005.01,0004.43
2023-09-14 08:01:00,SystemResetWarning,0830.1,5.00,000.00,028.9,027.4,000.0,037.2,030.4,16.8,0000.0,0011.31,0005.05,0004.43
2023-09-14 08:02:00,SystemResetWarning,0830.1,4.99,000.00,028.9,027.4,000.0,037.2,030.5,16.7,0000.0,0011.13,0005.05,0004.44
2023-09-14 08:03:00,SystemResetWarning,0830.1,4.99,000.00,028.9,027.4,000.0,037.2,030.5,16.7,0000.0,0010.78,0005.02,0004.44
2023-09-14 08:04:00,SystemResetWarning,0830.1,5.00,000.00,028.9,027.4,000.0,037.2,030.4,16.7,0000.0,0010.66,0005.01,0004.44
2023-09-14 08:05:00,SystemResetWarning,0830.1,5.00,000.00,028.9,027.4,000.0,037.2,030.5,16.8,0000.0,0010.41,0005.00,0004.44
2023-09-14 08:06:00,SystemResetWarning,0830.1,4.99,000.00,028.9,027.4,000.0,037.2,030.5,16.8,0000.0,0010.32,0004.96,0004.43
2023-09-14 08:07:00,SystemResetWarning,0830.1,5.01,000.00,028.9,027.4,000.0,037.2,030.5,16.8,0000.0,0010.39,0004.97,0004.43
2023-09-14 08:08:00,SystemResetWarning,0830.0,5.00,000.00,028.9,027.4,000.0,037.3,030.4,16.9,0000.0,0010.15,0004.97,0004.43
2023-09-14 08:09:00,SystemResetWarning,0830.1,5.01,000.00,028.9,027.4,000.0,037.3,030.5,16.9,0000.0,0009.57,0004.96,0004.42
2023-09-14 08:10:00,SystemResetWarning,0830.0,5.01,000.00,028.9,027.4,000.0,037.3,030.4,16.9,0000.0,0009.25,0004.97,0004.42
2023-09-14 08:11:00,SystemResetWarning,0830.1,5.00,000.00,028.9,027.4,000.0,037.3,030.4,16.9,0000.0,0009.08,0005.00,0004.41
2023-09-14 08:12:00,SystemResetWarning,0830.1,4.99,000.00,028.9,027.4,000.0,037.3,030.5,16.9,0000.0,0008.75,0004.99,0004.40
2023-09-14 08:13:00,SystemResetWarning,0830.1,4.99,000.00,028.9,027.4,000.0,037.3,030.5,16.9,0000.0,0008.73,0004.97,0004.38
2023-09-14 08:14:00,SystemResetWarning,0830.1,4.99,000.00,028.9,027.4,000.0,037.3,030.5,16.9,0000.0,0008.76,0004.98,0004.39
2023-09-14 08:15:00,SystemResetWarning,0830.1,5.02,000.00,028.9,027.4,000.0,037.3,030.5,16.9,0000.0,0008.75,0004.97,0004.39
2023-09-14 08:16:00,SystemResetWarning,0830.1,5.00,000.00,028.9,027.4,000.0,037.3,030.5,16.9,0000.0,0008.69,0004.97,0004.38
2023-09-14 08:17:00,SystemResetWarning,0830.1,4.99,000.00,028.9,027.4,000.0,037.3,030.5,17.0,0000.0,0008.88,0005.00,0004.39
2023-09-14 08:18:00,SystemResetWarning,0830.1,4.99,000.00,028.9,027.4,000.0,037.3,030.5,17.5,0000.0,0009.16,0005.00,0004.41
2023-09-14 08:19:00,SystemResetWarning,0830.1,5.00,000.00,029.0,027.5,000.0,037.3,030.6,18.4,0000.0,0009.13,0004.98,0004.41
2023-09-14 08:20:00,SystemResetWarning,0830.1,5.00,000.00,029.0,027.5,000.0,037.3,030.6,18.2,0000.0,0009.64,0004.99,0004.42
2023-09-14 08:21:00,SystemResetWarning,0830.2,5.01,000.00,029.0,027.5,000.0,037.3,030.6,18.1,0000.0,0009.79,0004.97,0004.42
2023-09-14 08:22:00,SystemResetWarning,0830.2,5.00,000.00,029.0,027.5,000.0,037.3,030.6,18.0,0000.0,0009.82,0004.94,0004.41
2023-09-14 08:23:00,SystemResetWarning,0830.2,5.00,000.00,029.0,027.5,000.0,037.3,030.6,17.8,0000.0,0009.74,0004.91,0004.41
2023-09-14 08:24:00,SystemResetWarning,0830.2,5.01,000.00,029.0,027.5,000.0,037.3,030.5,17.6,0000.0,0009.78,0004.91,0004.41
2023-09-14 08:25:00,SystemResetWarning,0830.2,5.00,000.00,029.0,027.5,000.0,037.3,030.5,17.4,0000.0,0009.81,0004.90,0004.40
2023-09-14 08:26:00,SystemResetWarning,0830.2,4.99,000.00,029.0,027.5,000.0,037.3,030.6,17.3,0000.0,0009.70,0004.87,0004.38
2023-09-14 08:27:00,SystemResetWarning,0830.3,5.00,000.00,029.0,027.5,000.0,037.3,030.6,17.3,0000.0,0009.61,0004.84,0004.38
2023-09-14 08:28:00,SystemResetWarning,0830.2,5.00,000.00,029.0,027.6,000.0,037.3,030.6,17.5,0000.0,0009.37,0004.82,0004.37
2023-09-14 08:29:00,SystemResetWarning,0830.3,5.00,000.00,029.0,027.6,000.0,037.3,030.6,17.5,0000.0,0009.09,0004.81,0004.35
2023-09-14 08:30:00,SystemResetWarning,0830.2,5.00,000.00,029.0,027.6,000.0,037.3,030.6,17.5,0000.0,0008.94,0004.80,0004.34
2023-09-14 08:31:00,SystemResetWarning,0830.2,4.99,000.00,029.0,027.6,000.0,037.3,030.6,17.7,0000.0,0008.33,0004.74,0004.32
2023-09-14 08:32:00,SystemResetWarning,0830.2,4.99,000.00,029.0,027.6,000.0,037.4,030.6,17.5,0000.0,0008.18,0004.71,0004.31
2023-09-14 08:33:00,SystemResetWarning,0830.3,5.00,000.00,029.0,027.6,000.0,037.4,030.6,17.7,0000.0,0008.02,0004.68,0004.31
2023-09-14 08:34:00,SystemResetWarning,0830.2,5.01,000.00,029.0,027.6,000.0,037.4,030.6,17.6,0000.0,0007.99,0004.67,0004.30
2023-09-14 08:35:00,SystemResetWarning,0830.2,5.01,000.00,029.0,027.6,000.0,037.4,030.7,17.4,0000.0,0008.30,0004.66,0004.30
2023-09-14 08:36:00,SystemResetWarning,0830.2,5.00,000.00,029.0,027.6,000.0,037.4,030.7,17.3,0000.0,0008.31,0004.66,0004.30
2023-09-14 08:37:00,SystemResetWarning,0830.2,4.99,000.00,029.1,027.6,000.0,037.4,030.7,17.2,0000.0,0008.27,0004.64,0004.30
2023-09-14 08:38:00,SystemResetWarning,0830.3,5.00,000.00,029.1,027.6,000.0,037.4,030.7,17.2,0000.0,0008.25,0004.62,0004.29
2023-09-14 08:39:00,SystemResetWarning,0830.2,5.00,000.00,029.1,027.7,000.0,037.4,030.7,17.2,0000.0,0008.47,0004.61,0004.28
2023-09-14 08:40:00,SystemResetWarning,0830.2,5.00,000.00,029.1,027.7,000.0,037.4,030.7,17.1,0000.0,0008.53,0004.60,0004.28
2023-09-14 08:41:00,SystemResetWarning,0830.2,5.00,000.00,029.1,027.7,000.0,037.4,030.7,17.1,0000.0,0008.63,0004.63,0004.28
2023-09-14 08:42:00,SystemResetWarning,0830.2,5.01,000.00,029.1,027.7,000.0,037.4,030.7,17.1,0000.0,0008.65,0004.64,0004.27
2023-09-14 08:43:00,SystemResetWarning,0830.1,5.00,000.00,029.1,027.5,000.0,037.4,030.7,17.0,0000.0,0008.55,0004.65,0004.26
2023-09-14 08:44:00,SystemResetWarning,0830.1,4.99,000.00,029.0,025.8,000.0,037.4,030.1,17.0,0000.0,0008.68,0004.68,0004.25
2023-09-14 08:45:00,SystemResetWarning,0830.1,5.00,000.00,028.9,024.6,000.0,037.3,029.8,17.1,0000.0,0008.75,0004.69,0004.25
2023-09-14 08:46:00,SystemResetWarning,0830.1,5.00,000.00,028.7,024.5,000.0,037.2,029.7,17.3,0000.0,0008.33,0004.67,0004.25
2023-09-14 08:47:00,SystemResetWarning,0830.1,5.01,000.00,028.6,024.8,000.0,037.2,029.6,17.4,0000.0,0008.13,0004.63,0004.24
2023-09-14 08:48:00,SystemResetWarning,0830.1,5.00,000.00,028.5,025.1,000.0,037.2,029.7,17.5,0000.0,0008.10,0004.61,0004.23
2023-09-14 08:49:00,SystemResetWarning,0830.1,5.00,000.00,028.5,025.4,000.0,037.1,029.8,17.5,0000.0,0008.14,0004.63,0004.23
2023-09-14 08:50:00,SystemResetWarning,0830.1,5.01,000.00,028.5,025.7,000.0,037.1,029.9,17.5,0000.0,0007.77,0004.62,0004.22
2023-09-14 08:51:00,SystemResetWarning,0830.2,5.01,000.00,028.5,026.0,000.0,037.1,029.9,17.5,0000.0,0007.71,0004.65,0004.22
2023-09-14 08:52:00,SystemResetWarning,0830.2,4.99,000.00,028.5,026.2,000.0,037.0,030.0,17.5,0000.0,0008.06,0004.59,0004.19
2023-09-14 08:53:00,SystemResetWarning,0830.2,5.00,000.00,028.5,026.4,000.0,037.0,030.0,17.6,0000.0,0008.31,0004.60,0004.19
2023-09-14 08:54:00,SystemResetWarning,0830.2,5.00,000.00,028.5,026.5,000.0,037.0,030.0,17.6,0000.0,0008.29,0004.59,0004.19
2023-09-14 08:55:00,SystemResetWarning,0830.3,5.00,000.00,028.5,026.7,000.0,036.9,030.1,17.6,0000.0,0008.27,0004.59,0004.20
2023-09-14 08:56:00,SystemResetWarning,0830.2,5.00,000.00,028.5,026.8,000.0,036.9,030.1,17.7,0000.0,0008.15,0004.57,0004.19
2023-09-14 08:57:00,SystemResetWarning,0830.2,5.00,000.00,028.5,026.9,000.0,036.9,030.1,17.7,0000.0,0008.22,0004.58,0004.20
2023-09-14 08:58:00,SystemResetWarning,0830.2,5.00,000.00,028.5,026.9,000.0,036.9,030.1,17.7,0000.0,0008.33,0004.61,0004.21
2023-09-14 08:59:00,SystemResetWarning,0830.2,5.00,000.00,028.5,027.0,000.0,036.9,030.1,17.7,0000.0,0008.43,0004.63,0004.21
